START_TIME,STEP,MOV.,P11,t_acc.,P23,t_acc.,P27,t_acc.,A4,t_acc.
1979-03-07 06:00:20.820 ,2,0,19.,4.8,0.,4.8,0.,4.8,0.,4.8
1979-03-07 06:00:25.620 ,2,0,18.,4.8,0.,4.8,0.,4.8,0.,4.8
1979-03-07 06:00:30.420 ,2,0,18.,4.8,0.,4.8,0.,4.8,0.,4.8
1979-03-07 06:00:35.220 ,2,0,23.,4.8,0.,4.8,0.,4.8,0.,4.8
1979-03-07 06:00:40.020 ,2,0,24.,4.8,0.,4.8,0.,4.8,0.,4.8
1979-03-07 06:00:44.810 ,3,0,21.,4.8,0.,4.8,0.,4.8,0.,4.8
1979-03-07 06:00:49.620 ,3,0,17.,4.8,0.,4.8,0.,4.8,0.,4.8
1979-03-07 06:00:54.420 ,3,0,19.,4.8,0.,4.8,0.,4.8,0.,4.8
1979-03-07 06:00:59.220 ,3,0,29.,4.8,0.,4.8,0.,4.8,0.,4.8
1979-03-07 06:01:04.020 ,3,0,22.,4.8,0.,4.8,0.,4.8,0.,4.8
1979-03-07 06:01:08.810 ,4,0,17.,4.8,0.,4.8,0.,4.8,0.,4.8
1979-03-07 06:01:13.610 ,4,0,30.,4.8,0.,4.8,0.,4.8,0.,4.8
1979-03-07 06:01:18.420 ,4,0,21.,4.8,0.,4.8,0.,4.8,0.,4.8
1979-03-07 06:01:23.220 ,4,0,27.,4.8,0.,4.8,0.,4.8,0.,4.8
1979-03-07 06:01:28.020 ,4,0,32.,4.8,0.,4.8,0.,4.8,0.,4.8
1979-03-07 06:01:32.810 ,5,0,30.,4.8,0.,4.8,0.,4.8,0.,4.8
1979-03-07 06:01:37.610 ,5,0,31.,4.8,0.,4.8,0.,4.8,0.,4.8
1979-03-07 06:01:42.420 ,5,0,15.,4.8,0.,4.8,0.,4.8,0.,4.8
1979-03-07 06:01:47.220 ,5,0,19.,4.8,0.,4.8,0.,4.8,0.,4.8
1979-03-07 06:01:52.020 ,5,0,21.,4.8,0.,4.8,0.,4.8,0.,4.8
1979-03-07 06:01:56.810 ,6,0,19.,4.8,0.,4.8,0.,4.8,0.,4.8
1979-03-07 06:02:01.610 ,6,0,24.,4.8,0.,4.8,0.,4.8,0.,4.8
1979-03-07 06:02:06.420 ,6,0,19.,4.8,0.,4.8,0.,4.8,0.,4.8
1979-03-07 06:02:11.210 ,6,0,24.,4.8,0.,4.8,0.,4.8,0.,4.8
1979-03-07 06:02:16.010 ,6,0,24.,4.8,0.,4.8,0.,4.8,0.,4.8
1979-03-07 06:02:20.820 ,7,0,24.,4.8,0.,4.8,0.,4.8,0.,4.8
1979-03-07 06:02:25.620 ,7,0,20.,4.8,0.,4.8,0.,4.8,0.,4.8
1979-03-07 06:02:30.420 ,7,0,13.,4.8,0.,4.8,0.,4.8,0.,4.8
1979-03-07 06:02:35.220 ,7,0,7.,4.8,0.,4.8,0.,4.8,0.,4.8
1979-03-07 06:02:40.020 ,7,0,8.,4.8,0.,4.8,0.,4.8,0.,4.8
1979-03-07 06:02:44.810 ,7,0,5.,4.8,0.,4.8,0.,4.8,0.,4.8
1979-03-07 06:02:49.610 ,7,0,11.,4.8,0.,4.8,0.,4.8,0.,4.8
1979-03-07 06:02:54.410 ,7,0,13.,4.8,0.,4.8,0.,4.8,0.,4.8
1979-03-07 06:02:59.210 ,7,0,8.,4.8,0.,4.8,0.,4.8,0.,4.8
1979-03-07 06:03:04.010 ,7,0,11.,4.8,0.,4.8,0.,4.8,0.,4.8
1979-03-07 06:03:08.820 ,6,0,11.,4.8,0.,4.8,0.,4.8,0.,4.8
1979-03-07 06:03:13.620 ,6,0,10.,4.8,0.,4.8,0.,4.8,0.,4.8
1979-03-07 06:03:18.420 ,6,0,23.,4.8,0.,4.8,0.,4.8,0.,4.8
1979-03-07 06:03:23.210 ,6,0,12.,4.8,0.,4.8,0.,4.8,0.,4.8
1979-03-07 06:03:28.020 ,6,0,20.,4.8,0.,4.8,0.,4.8,0.,4.8
1979-03-07 06:03:32.820 ,5,0,24.,4.8,0.,4.8,0.,4.8,0.,4.8
1979-03-07 06:03:37.620 ,5,0,28.,4.8,0.,4.8,0.,4.8,0.,4.8
1979-03-07 06:03:42.420 ,5,0,19.,4.8,0.,4.8,0.,4.8,0.,4.8
1979-03-07 06:03:47.210 ,5,0,20.,4.8,0.,4.8,0.,4.8,0.,4.8
1979-03-07 06:03:52.010 ,5,0,29.,4.8,0.,4.8,0.,4.8,0.,4.8
1979-03-07 06:03:56.820 ,4,0,22.,4.8,0.,4.8,0.,4.8,0.,4.8
1979-03-07 06:04:01.620 ,4,0,20.,4.8,0.,4.8,0.,4.8,0.,4.8
1979-03-07 06:04:06.420 ,4,0,19.,4.8,0.,4.8,0.,4.8,0.,4.8
1979-03-07 06:04:11.220 ,4,0,35.,4.8,0.,4.8,0.,4.8,0.,4.8
1979-03-07 06:04:16.020 ,4,0,24.,4.8,0.,4.8,0.,4.8,0.,4.8
1979-03-07 06:04:20.820 ,3,0,21.,4.8,0.,4.8,0.,4.8,0.,4.8
1979-03-07 06:04:25.620 ,3,0,29.,4.8,0.,4.8,0.,4.8,0.,4.8
1979-03-07 06:04:30.420 ,3,0,21.,4.8,0.,4.8,0.,4.8,0.,4.8
1979-03-07 06:04:35.220 ,3,0,25.,4.8,0.,4.8,0.,4.8,0.,4.8
1979-03-07 06:04:40.020 ,3,0,21.,4.8,0.,4.8,0.,4.8,0.,4.8
1979-03-07 06:04:44.820 ,2,0,27.,4.8,0.,4.8,0.,4.8,0.,4.8
1979-03-07 06:04:49.620 ,2,0,27.,4.8,0.,4.8,0.,4.8,0.,4.8
1979-03-07 06:04:54.420 ,2,0,24.,4.8,0.,4.8,0.,4.8,0.,4.8
1979-03-07 06:04:59.220 ,2,0,22.,4.8,0.,4.8,0.,4.8,0.,4.8
1979-03-07 06:05:04.020 ,2,0,24.,4.8,0.,4.8,0.,4.8,0.,4.8
1979-03-07 06:05:08.820 ,1,0,29.,4.8,0.,4.8,0.,4.8,0.,4.8
1979-03-07 06:05:13.620 ,1,0,23.,4.8,0.,4.8,0.,4.8,0.,4.8
1979-03-07 06:05:18.420 ,1,0,20.,4.8,0.,4.8,0.,4.8,0.,4.8
1979-03-07 06:05:23.220 ,1,0,31.,4.8,0.,4.8,0.,4.8,0.,4.8
1979-03-07 06:05:28.020 ,1,0,29.,4.8,0.,4.8,0.,4.8,0.,4.8
1979-03-07 06:05:32.820 ,0,0,16.,4.8,0.,4.8,0.,4.8,0.,4.8
1979-03-07 06:05:37.620 ,0,0,20.,4.8,0.,4.8,0.,4.8,0.,4.8
1979-03-07 06:05:42.420 ,0,0,20.,4.8,0.,4.8,0.,4.8,0.,4.8
1979-03-07 06:05:47.220 ,0,0,23.,4.8,0.,4.8,0.,4.8,0.,4.8
1979-03-07 06:05:52.020 ,0,0,30.,4.8,0.,4.8,0.,4.8,0.,4.8
1979-03-07 06:05:56.820 ,0,0,17.,4.8,0.,4.8,0.,4.8,0.,4.8
1979-03-07 06:06:01.620 ,0,0,18.,4.8,0.,4.8,0.,4.8,0.,4.8
1979-03-07 06:06:06.420 ,0,0,26.,4.8,0.,4.8,0.,4.8,0.,4.8
1979-03-07 06:06:11.220 ,0,0,24.,4.8,0.,4.8,0.,4.8,0.,4.8
1979-03-07 06:06:16.020 ,0,0,23.,4.8,0.,4.8,0.,4.8,0.,4.8
1979-03-07 06:06:20.820 ,1,0,25.,4.8,0.,4.8,0.,4.8,0.,4.8
1979-03-07 06:06:25.620 ,1,0,23.,4.8,0.,4.8,0.,4.8,0.,4.8
1979-03-07 06:06:30.420 ,1,0,26.,4.8,0.,4.8,0.,4.8,0.,4.8
1979-03-07 06:06:35.220 ,1,0,22.,4.8,0.,4.8,0.,4.8,0.,4.8
1979-03-07 06:06:40.020 ,1,0,17.,4.8,0.,4.8,0.,4.8,0.,4.8
1979-03-07 06:06:44.820 ,2,0,25.,4.8,0.,4.8,0.,4.8,0.,4.8
1979-03-07 06:06:49.620 ,2,0,20.,4.8,0.,4.8,0.,4.8,0.,4.8
1979-03-07 06:06:54.420 ,2,0,29.,4.8,0.,4.8,0.,4.8,0.,4.8
1979-03-07 06:06:59.220 ,2,0,27.,4.8,0.,4.8,0.,4.8,0.,4.8
1979-03-07 06:07:04.020 ,2,0,21.,4.8,0.,4.8,0.,4.8,0.,4.8
1979-03-07 06:07:08.820 ,3,0,22.,4.8,0.,4.8,0.,4.8,0.,4.8
1979-03-07 06:07:13.620 ,3,0,20.,4.8,0.,4.8,0.,4.8,0.,4.8
1979-03-07 06:07:18.420 ,3,0,33.,4.8,0.,4.8,0.,4.8,0.,4.8
1979-03-07 06:07:23.220 ,3,0,24.,4.8,0.,4.8,0.,4.8,0.,4.8
1979-03-07 06:07:28.020 ,3,0,25.,4.8,0.,4.8,0.,4.8,0.,4.8
1979-03-07 06:07:32.820 ,4,0,25.,4.8,0.,4.8,0.,4.8,0.,4.8
1979-03-07 06:07:37.620 ,4,0,32.,4.8,0.,4.8,0.,4.8,0.,4.8
1979-03-07 06:07:42.420 ,4,0,21.,4.8,0.,4.8,0.,4.8,0.,4.8
1979-03-07 06:07:47.220 ,4,0,23.,4.8,0.,4.8,0.,4.8,0.,4.8
1979-03-07 06:07:52.020 ,4,0,22.,4.8,0.,4.8,0.,4.8,0.,4.8
1979-03-07 06:07:56.820 ,5,0,21.,4.8,0.,4.8,0.,4.8,0.,4.8
1979-03-07 06:08:01.620 ,5,0,19.,4.8,0.,4.8,0.,4.8,0.,4.8
1979-03-07 06:08:06.420 ,5,0,26.,4.8,0.,4.8,0.,4.8,0.,4.8
1979-03-07 06:08:11.220 ,5,0,31.,4.8,0.,4.8,0.,4.8,0.,4.8
1979-03-07 06:08:16.020 ,5,0,19.,4.8,0.,4.8,0.,4.8,0.,4.8
1979-03-07 06:08:20.820 ,6,0,33.,4.8,0.,4.8,0.,4.8,0.,4.8
1979-03-07 06:08:25.620 ,6,0,26.,4.8,0.,4.8,0.,4.8,0.,4.8
1979-03-07 06:08:30.420 ,6,0,26.,4.8,0.,4.8,0.,4.8,0.,4.8
1979-03-07 06:08:35.220 ,6,0,23.,4.8,0.,4.8,0.,4.8,0.,4.8
1979-03-07 06:08:40.020 ,6,0,27.,4.8,0.,4.8,0.,4.8,0.,4.8
1979-03-07 06:08:44.820 ,7,0,32.,4.8,0.,4.8,0.,4.8,0.,4.8
1979-03-07 06:08:49.620 ,7,0,22.,4.8,0.,4.8,0.,4.8,0.,4.8
1979-03-07 06:08:54.420 ,7,0,10.,4.8,0.,4.8,0.,4.8,0.,4.8
1979-03-07 06:08:59.220 ,7,0,6.,4.8,0.,4.8,0.,4.8,0.,4.8
1979-03-07 06:09:04.020 ,7,0,8.,4.8,0.,4.8,0.,4.8,0.,4.8
1979-03-07 06:09:08.820 ,7,0,8.,4.8,0.,4.8,0.,4.8,0.,4.8
1979-03-07 06:09:13.620 ,7,0,14.,4.8,0.,4.8,0.,4.8,0.,4.8
1979-03-07 06:09:18.420 ,7,0,10.,4.8,0.,4.8,0.,4.8,0.,4.8
1979-03-07 06:09:23.220 ,7,0,7.,4.8,0.,4.8,0.,4.8,0.,4.8
1979-03-07 06:09:28.020 ,7,0,9.,4.8,0.,4.8,0.,4.8,0.,4.8
1979-03-07 06:09:32.820 ,6,0,8.,4.8,0.,4.8,0.,4.8,0.,4.8
1979-03-07 06:09:37.620 ,6,0,3.,4.8,0.,4.8,0.,4.8,0.,4.8
1979-03-07 06:09:42.420 ,6,0,17.,4.8,0.,4.8,0.,4.8,0.,4.8
1979-03-07 06:09:47.220 ,6,0,25.,4.8,0.,4.8,0.,4.8,0.,4.8
1979-03-07 06:09:52.020 ,6,0,24.,4.8,0.,4.8,0.,4.8,0.,4.8
1979-03-07 06:09:56.820 ,5,0,22.,4.8,0.,4.8,0.,4.8,0.,4.8
1979-03-07 06:10:01.620 ,5,0,28.,4.8,0.,4.8,0.,4.8,0.,4.8
1979-03-07 06:10:06.420 ,5,0,20.,4.8,0.,4.8,0.,4.8,0.,4.8
1979-03-07 06:10:11.220 ,5,0,20.,4.8,0.,4.8,0.,4.8,0.,4.8
1979-03-07 06:10:16.020 ,5,0,24.,4.8,0.,4.8,0.,4.8,0.,4.8
1979-03-07 06:10:20.820 ,4,0,32.,4.8,0.,4.8,0.,4.8,0.,4.8
1979-03-07 06:10:25.620 ,4,0,17.,4.8,0.,4.8,0.,4.8,0.,4.8
1979-03-07 06:10:30.420 ,4,0,34.,4.8,0.,4.8,0.,4.8,0.,4.8
1979-03-07 06:10:35.220 ,4,0,27.,4.8,0.,4.8,0.,4.8,0.,4.8
1979-03-07 06:10:40.020 ,4,0,20.,4.8,0.,4.8,0.,4.8,0.,4.8
1979-03-07 06:10:44.820 ,3,0,32.,4.8,0.,4.8,0.,4.8,0.,4.8
1979-03-07 06:10:49.620 ,3,0,30.,4.8,0.,4.8,0.,4.8,0.,4.8
1979-03-07 06:10:54.420 ,3,0,24.,4.8,0.,4.8,0.,4.8,0.,4.8
1979-03-07 06:10:59.220 ,3,0,28.,4.8,0.,4.8,0.,4.8,0.,4.8
1979-03-07 06:11:04.020 ,3,0,26.,4.8,0.,4.8,0.,4.8,0.,4.8
1979-03-07 06:11:08.820 ,2,0,22.,4.8,0.,4.8,0.,4.8,0.,4.8
1979-03-07 06:11:13.620 ,2,0,27.,4.8,0.,4.8,0.,4.8,0.,4.8
1979-03-07 06:11:18.420 ,2,0,20.,4.8,0.,4.8,0.,4.8,0.,4.8
1979-03-07 06:11:23.220 ,2,0,30.,4.8,0.,4.8,0.,4.8,0.,4.8
1979-03-07 06:11:28.020 ,2,0,28.,4.8,0.,4.8,0.,4.8,0.,4.8
1979-03-07 06:11:32.820 ,1,0,19.,4.8,0.,4.8,0.,4.8,0.,4.8
1979-03-07 06:11:37.620 ,1,0,23.,4.8,0.,4.8,0.,4.8,0.,4.8
1979-03-07 06:11:42.420 ,1,0,23.,4.8,0.,4.8,0.,4.8,0.,4.8
1979-03-07 06:11:47.220 ,1,0,14.,4.8,0.,4.8,0.,4.8,0.,4.8
1979-03-07 06:11:52.020 ,1,0,26.,4.8,0.,4.8,0.,4.8,0.,4.8
1979-03-07 06:11:56.820 ,0,0,18.,4.8,0.,4.8,0.,4.8,0.,4.8
1979-03-07 06:12:01.620 ,0,0,29.,4.8,0.,4.8,0.,4.8,0.,4.8
1979-03-07 06:12:06.420 ,0,0,20.,4.8,0.,4.8,0.,4.8,0.,4.8
1979-03-07 06:12:11.220 ,0,0,16.,4.8,0.,4.8,0.,4.8,0.,4.8
1979-03-07 06:12:16.020 ,0,0,23.,4.8,0.,4.8,0.,4.8,0.,4.8
1979-03-07 06:12:20.820 ,0,0,20.,4.8,0.,4.8,0.,4.8,0.,4.8
1979-03-07 06:12:25.620 ,0,0,17.,4.8,0.,4.8,0.,4.8,0.,4.8
1979-03-07 06:12:30.420 ,0,0,26.,4.8,0.,4.8,0.,4.8,0.,4.8
1979-03-07 06:12:35.220 ,0,0,27.,4.8,0.,4.8,0.,4.8,0.,4.8
1979-03-07 06:12:40.020 ,0,0,24.,4.8,0.,4.8,0.,4.8,0.,4.8
1979-03-07 06:12:44.820 ,1,0,25.,4.8,0.,4.8,0.,4.8,0.,4.8
1979-03-07 06:12:49.620 ,1,0,29.,4.8,0.,4.8,0.,4.8,0.,4.8
1979-03-07 06:12:54.420 ,1,0,29.,4.8,0.,4.8,0.,4.8,0.,4.8
1979-03-07 06:12:59.220 ,1,0,19.,4.8,0.,4.8,0.,4.8,0.,4.8
1979-03-07 06:13:04.020 ,1,0,28.,4.8,0.,4.8,0.,4.8,0.,4.8
1979-03-07 06:13:08.820 ,2,0,20.,4.8,0.,4.8,0.,4.8,0.,4.8
1979-03-07 06:13:13.620 ,2,0,16.,4.8,0.,4.8,0.,4.8,0.,4.8
1979-03-07 06:13:18.420 ,2,0,18.,4.8,0.,4.8,0.,4.8,0.,4.8
1979-03-07 06:13:23.220 ,2,0,14.,4.8,0.,4.8,0.,4.8,1.,4.8
1979-03-07 06:13:28.020 ,2,0,18.,4.8,0.,4.8,0.,4.8,0.,4.8
1979-03-07 06:13:32.820 ,3,0,21.,4.8,0.,4.8,0.,4.8,0.,4.8
1979-03-07 06:13:37.620 ,3,0,25.,4.8,0.,4.8,0.,4.8,0.,4.8
1979-03-07 06:13:42.420 ,3,0,27.,4.8,0.,4.8,0.,4.8,0.,4.8
1979-03-07 06:13:47.220 ,3,0,21.,4.8,0.,4.8,0.,4.8,0.,4.8
1979-03-07 06:13:52.020 ,3,0,27.,4.8,0.,4.8,0.,4.8,0.,4.8
1979-03-07 06:13:56.820 ,4,0,30.,4.8,0.,4.8,0.,4.8,0.,4.8
1979-03-07 06:14:01.620 ,4,0,29.,4.8,0.,4.8,0.,4.8,0.,4.8
1979-03-07 06:14:06.420 ,4,0,27.,4.8,0.,4.8,0.,4.8,0.,4.8
1979-03-07 06:14:11.220 ,4,0,27.,4.8,0.,4.8,0.,4.8,0.,4.8
1979-03-07 06:14:16.020 ,4,0,29.,4.8,0.,4.8,0.,4.8,0.,4.8
1979-03-07 06:14:20.820 ,5,0,31.,4.8,0.,4.8,0.,4.8,0.,4.8
1979-03-07 06:14:25.620 ,5,0,26.,4.8,0.,4.8,0.,4.8,0.,4.8
1979-03-07 06:14:30.420 ,5,0,26.,4.8,0.,4.8,0.,4.8,0.,4.8
1979-03-07 06:14:35.220 ,5,0,18.,4.8,0.,4.8,0.,4.8,0.,4.8
1979-03-07 06:14:40.020 ,5,0,23.,4.8,0.,4.8,0.,4.8,0.,4.8
1979-03-07 06:14:44.820 ,6,0,20.,4.8,0.,4.8,0.,4.8,0.,4.8
1979-03-07 06:14:49.620 ,6,0,24.,4.8,0.,4.8,0.,4.8,0.,4.8
1979-03-07 06:14:54.420 ,6,0,9.,4.8,0.,4.8,0.,4.8,0.,4.8
1979-03-07 06:14:59.220 ,6,0,20.,4.8,0.,4.8,0.,4.8,0.,4.8
1979-03-07 06:15:04.020 ,6,0,18.,4.8,0.,4.8,0.,4.8,0.,4.8
1979-03-07 06:15:08.820 ,7,0,25.,4.8,0.,4.8,0.,4.8,0.,4.8
1979-03-07 06:15:13.620 ,7,0,13.,4.8,0.,4.8,0.,4.8,0.,4.8
1979-03-07 06:15:18.420 ,7,0,15.,4.8,0.,4.8,0.,4.8,0.,4.8
1979-03-07 06:15:23.220 ,7,0,11.,4.8,0.,4.8,0.,4.8,0.,4.8
1979-03-07 06:15:28.020 ,7,0,10.,4.8,0.,4.8,0.,4.8,0.,4.8
1979-03-07 06:15:32.820 ,7,0,9.,4.8,0.,4.8,0.,4.8,0.,4.8
1979-03-07 06:15:37.620 ,7,0,16.,4.8,0.,4.8,0.,4.8,0.,4.8
1979-03-07 06:15:42.420 ,7,0,13.,4.8,0.,4.8,0.,4.8,0.,4.8
1979-03-07 06:15:47.220 ,7,0,10.,4.8,0.,4.8,0.,4.8,0.,4.8
1979-03-07 06:15:52.020 ,7,0,10.,4.8,0.,4.8,0.,4.8,0.,4.8
1979-03-07 06:15:56.820 ,6,0,6.,4.8,0.,4.8,0.,4.8,0.,4.8
1979-03-07 06:16:01.620 ,6,0,7.,4.8,0.,4.8,0.,4.8,0.,4.8
1979-03-07 06:16:06.420 ,6,0,20.,4.8,0.,4.8,0.,4.8,0.,4.8
1979-03-07 06:16:11.220 ,6,0,30.,4.8,0.,4.8,0.,4.8,0.,4.8
1979-03-07 06:16:16.020 ,6,0,27.,4.8,0.,4.8,0.,4.8,0.,4.8
1979-03-07 06:16:20.820 ,5,0,22.,4.8,0.,4.8,0.,4.8,0.,4.8
1979-03-07 06:16:25.620 ,5,0,20.,4.8,0.,4.8,0.,4.8,0.,4.8
1979-03-07 06:16:30.420 ,5,0,27.,4.8,0.,4.8,0.,4.8,0.,4.8
1979-03-07 06:16:35.220 ,5,0,19.,4.8,0.,4.8,0.,4.8,0.,4.8
1979-03-07 06:16:40.020 ,5,0,18.,4.8,0.,4.8,0.,4.8,0.,4.8
1979-03-07 06:16:44.820 ,4,0,24.,4.8,0.,4.8,0.,4.8,0.,4.8
1979-03-07 06:16:49.620 ,4,0,20.,4.8,0.,4.8,0.,4.8,0.,4.8
1979-03-07 06:16:54.420 ,4,0,28.,4.8,0.,4.8,0.,4.8,0.,4.8
1979-03-07 06:16:59.220 ,4,0,27.,4.8,0.,4.8,0.,4.8,0.,4.8
1979-03-07 06:17:04.020 ,4,0,26.,4.8,0.,4.8,0.,4.8,0.,4.8
1979-03-07 06:17:08.820 ,3,0,33.,4.8,0.,4.8,0.,4.8,0.,4.8
1979-03-07 06:17:13.620 ,3,0,18.,4.8,0.,4.8,0.,4.8,0.,4.8
1979-03-07 06:17:18.420 ,3,0,28.,4.8,0.,4.8,0.,4.8,0.,4.8
1979-03-07 06:17:23.220 ,3,0,18.,4.8,0.,4.8,0.,4.8,0.,4.8
1979-03-07 06:17:28.020 ,3,0,31.,4.8,0.,4.8,0.,4.8,0.,4.8
1979-03-07 06:17:32.820 ,2,0,33.,4.8,0.,4.8,0.,4.8,0.,4.8
1979-03-07 06:17:37.620 ,2,0,25.,4.8,0.,4.8,0.,4.8,0.,4.8
1979-03-07 06:17:42.420 ,2,0,25.,4.8,0.,4.8,0.,4.8,0.,4.8
1979-03-07 06:17:47.220 ,2,0,29.,4.8,0.,4.8,0.,4.8,0.,4.8
1979-03-07 06:17:52.020 ,2,0,27.,4.8,0.,4.8,0.,4.8,0.,4.8
1979-03-07 06:17:56.820 ,1,0,28.,4.8,0.,4.8,0.,4.8,0.,4.8
1979-03-07 06:18:01.620 ,1,0,30.,4.8,0.,4.8,0.,4.8,0.,4.8
1979-03-07 06:18:06.420 ,1,0,24.,4.8,0.,4.8,0.,4.8,0.,4.8
1979-03-07 06:18:11.220 ,1,0,20.,4.8,0.,4.8,0.,4.8,0.,4.8
1979-03-07 06:18:16.020 ,1,0,30.,4.8,0.,4.8,0.,4.8,0.,4.8
1979-03-07 06:18:20.820 ,0,0,23.,4.8,0.,4.8,0.,4.8,0.,4.8
1979-03-07 06:18:25.620 ,0,0,28.,4.8,0.,4.8,0.,4.8,0.,4.8
1979-03-07 06:18:30.420 ,0,0,33.,4.8,0.,4.8,0.,4.8,0.,4.8
1979-03-07 06:18:35.220 ,0,0,20.,4.8,0.,4.8,0.,4.8,0.,4.8
1979-03-07 06:18:40.020 ,0,0,25.,4.8,0.,4.8,0.,4.8,0.,4.8
1979-03-07 06:18:44.820 ,0,0,24.,4.8,0.,4.8,0.,4.8,0.,4.8
1979-03-07 06:18:49.620 ,0,0,25.,4.8,0.,4.8,0.,4.8,0.,4.8
1979-03-07 06:18:54.420 ,0,0,16.,4.8,0.,4.8,0.,4.8,0.,4.8
1979-03-07 06:18:59.220 ,0,0,23.,4.8,0.,4.8,0.,4.8,0.,4.8
1979-03-07 06:19:04.020 ,0,0,18.,4.8,0.,4.8,0.,4.8,0.,4.8
1979-03-07 06:19:08.820 ,1,0,20.,4.8,0.,4.8,0.,4.8,0.,4.8
1979-03-07 06:19:13.620 ,1,0,21.,4.8,0.,4.8,0.,4.8,0.,4.8
1979-03-07 06:19:18.420 ,1,0,22.,4.8,0.,4.8,0.,4.8,0.,4.8
1979-03-07 06:19:23.220 ,1,0,14.,4.8,0.,4.8,0.,4.8,0.,4.8
1979-03-07 06:19:28.020 ,1,0,24.,4.8,0.,4.8,0.,4.8,0.,4.8
1979-03-07 06:19:32.820 ,2,0,30.,4.8,0.,4.8,0.,4.8,0.,4.8
1979-03-07 06:19:37.620 ,2,0,20.,4.8,0.,4.8,0.,4.8,0.,4.8
1979-03-07 06:19:42.420 ,2,0,27.,4.8,0.,4.8,0.,4.8,0.,4.8
1979-03-07 06:19:47.220 ,2,0,25.,4.8,0.,4.8,0.,4.8,0.,4.8
1979-03-07 06:19:52.020 ,2,0,25.,4.8,0.,4.8,0.,4.8,0.,4.8
1979-03-07 06:19:56.820 ,3,0,20.,4.8,0.,4.8,0.,4.8,0.,4.8
1979-03-07 06:20:01.620 ,3,0,19.,4.8,0.,4.8,0.,4.8,0.,4.8
1979-03-07 06:20:06.420 ,3,0,23.,4.8,0.,4.8,0.,4.8,0.,4.8
1979-03-07 06:20:11.220 ,3,0,17.,4.8,0.,4.8,0.,4.8,0.,4.8
1979-03-07 06:20:16.020 ,3,0,37.,4.8,0.,4.8,0.,4.8,0.,4.8
1979-03-07 06:20:20.820 ,4,0,37.,4.8,0.,4.8,0.,4.8,0.,4.8
1979-03-07 06:20:25.620 ,4,0,24.,4.8,0.,4.8,0.,4.8,0.,4.8
1979-03-07 06:20:30.420 ,4,0,30.,4.8,0.,4.8,0.,4.8,0.,4.8
1979-03-07 06:20:35.220 ,4,0,35.,4.8,0.,4.8,0.,4.8,0.,4.8
1979-03-07 06:20:40.020 ,4,0,26.,4.8,0.,4.8,0.,4.8,0.,4.8
1979-03-07 06:20:44.820 ,5,0,21.,4.8,0.,4.8,0.,4.8,0.,4.8
1979-03-07 06:20:49.620 ,5,0,21.,4.8,0.,4.8,0.,4.8,0.,4.8
1979-03-07 06:20:54.420 ,5,0,29.,4.8,0.,4.8,0.,4.8,0.,4.8
1979-03-07 06:20:59.220 ,5,0,24.,4.8,0.,4.8,0.,4.8,0.,4.8
1979-03-07 06:21:04.020 ,5,0,27.,4.8,0.,4.8,0.,4.8,0.,4.8
1979-03-07 06:21:08.820 ,6,0,30.,4.8,0.,4.8,0.,4.8,0.,4.8
1979-03-07 06:21:13.620 ,6,0,23.,4.8,0.,4.8,0.,4.8,0.,4.8
1979-03-07 06:21:18.420 ,6,0,25.,4.8,0.,4.8,0.,4.8,0.,4.8
1979-03-07 06:21:23.220 ,6,0,20.,4.8,0.,4.8,0.,4.8,0.,4.8
1979-03-07 06:21:28.020 ,6,0,14.,4.8,0.,4.8,0.,4.8,0.,4.8
1979-03-07 06:21:32.820 ,7,0,29.,4.8,0.,4.8,0.,4.8,0.,4.8
1979-03-07 06:21:37.620 ,7,0,32.,4.8,0.,4.8,0.,4.8,0.,4.8
1979-03-07 06:21:42.420 ,7,0,12.,4.8,0.,4.8,0.,4.8,0.,4.8
1979-03-07 06:21:47.220 ,7,0,16.,4.8,0.,4.8,0.,4.8,0.,4.8
1979-03-07 06:21:52.020 ,7,0,12.,4.8,0.,4.8,0.,4.8,0.,4.8
1979-03-07 06:21:56.820 ,7,0,11.,4.8,0.,4.8,0.,4.8,0.,4.8
1979-03-07 06:22:01.620 ,7,0,10.,4.8,0.,4.8,0.,4.8,0.,4.8
1979-03-07 06:22:06.420 ,7,0,14.,4.8,0.,4.8,0.,4.8,0.,4.8
1979-03-07 06:22:11.220 ,7,0,8.,4.8,0.,4.8,0.,4.8,0.,4.8
1979-03-07 06:22:16.020 ,7,0,16.,4.8,0.,4.8,0.,4.8,0.,4.8
1979-03-07 06:22:20.820 ,6,0,16.,4.8,0.,4.8,0.,4.8,0.,4.8
1979-03-07 06:22:25.620 ,6,0,9.,4.8,0.,4.8,0.,4.8,0.,4.8
1979-03-07 06:22:30.420 ,6,0,26.,4.8,0.,4.8,0.,4.8,0.,4.8
1979-03-07 06:22:35.220 ,6,0,33.,4.8,0.,4.8,0.,4.8,0.,4.8
1979-03-07 06:22:40.020 ,6,0,21.,4.8,0.,4.8,0.,4.8,0.,4.8
1979-03-07 06:22:44.820 ,5,0,27.,4.8,0.,4.8,0.,4.8,0.,4.8
1979-03-07 06:22:49.620 ,5,0,24.,4.8,0.,4.8,0.,4.8,0.,4.8
1979-03-07 06:22:54.420 ,5,0,25.,4.8,0.,4.8,0.,4.8,0.,4.8
1979-03-07 06:22:59.220 ,5,0,20.,4.8,0.,4.8,0.,4.8,0.,4.8
1979-03-07 06:23:04.020 ,5,0,28.,4.8,0.,4.8,0.,4.8,0.,4.8
1979-03-07 06:23:08.820 ,4,0,20.,4.8,0.,4.8,0.,4.8,0.,4.8
1979-03-07 06:23:13.620 ,4,0,34.,4.8,0.,4.8,0.,4.8,0.,4.8
1979-03-07 06:23:18.420 ,4,0,34.,4.8,0.,4.8,0.,4.8,0.,4.8
1979-03-07 06:23:23.220 ,4,0,19.,4.8,0.,4.8,0.,4.8,0.,4.8
1979-03-07 06:23:28.020 ,4,0,25.,4.8,0.,4.8,0.,4.8,0.,4.8
1979-03-07 06:23:32.820 ,3,0,36.,4.8,0.,4.8,0.,4.8,0.,4.8
1979-03-07 06:23:37.620 ,3,0,22.,4.8,0.,4.8,0.,4.8,0.,4.8
1979-03-07 06:23:42.420 ,3,0,14.,4.8,0.,4.8,0.,4.8,0.,4.8
1979-03-07 06:23:47.220 ,3,0,25.,4.8,0.,4.8,0.,4.8,0.,4.8
1979-03-07 06:23:52.020 ,3,0,28.,4.8,0.,4.8,0.,4.8,0.,4.8
1979-03-07 06:23:56.820 ,2,0,21.,4.8,0.,4.8,0.,4.8,0.,4.8
1979-03-07 06:24:01.620 ,2,0,25.,4.8,0.,4.8,0.,4.8,0.,4.8
1979-03-07 06:24:06.420 ,2,0,27.,4.8,0.,4.8,0.,4.8,0.,4.8
1979-03-07 06:24:11.220 ,2,0,24.,4.8,0.,4.8,0.,4.8,0.,4.8
1979-03-07 06:24:16.020 ,2,0,32.,4.8,0.,4.8,0.,4.8,0.,4.8
1979-03-07 06:24:20.820 ,1,0,21.,4.8,0.,4.8,0.,4.8,0.,4.8
1979-03-07 06:24:25.620 ,1,0,25.,4.8,0.,4.8,0.,4.8,0.,4.8
1979-03-07 06:24:30.420 ,1,0,30.,4.8,0.,4.8,0.,4.8,0.,4.8
1979-03-07 06:24:35.220 ,1,0,26.,4.8,0.,4.8,0.,4.8,0.,4.8
1979-03-07 06:24:40.020 ,1,0,16.,4.8,0.,4.8,0.,4.8,0.,4.8
1979-03-07 06:24:44.820 ,0,0,29.,4.8,0.,4.8,0.,4.8,0.,4.8
1979-03-07 06:24:49.620 ,0,0,26.,4.8,0.,4.8,0.,4.8,0.,4.8
1979-03-07 06:24:54.420 ,0,0,28.,4.8,0.,4.8,0.,4.8,0.,4.8
1979-03-07 06:24:59.220 ,0,0,24.,4.8,0.,4.8,0.,4.8,0.,4.8
1979-03-07 06:25:04.020 ,0,0,20.,4.8,0.,4.8,0.,4.8,0.,4.8
1979-03-07 06:25:08.820 ,0,0,21.,4.8,0.,4.8,0.,4.8,0.,4.8
1979-03-07 06:25:13.620 ,0,0,25.,4.8,0.,4.8,0.,4.8,0.,4.8
1979-03-07 06:25:18.420 ,0,0,25.,4.8,0.,4.8,0.,4.8,0.,4.8
1979-03-07 06:25:23.220 ,0,0,32.,4.8,0.,4.8,0.,4.8,0.,4.8
1979-03-07 06:25:28.020 ,0,0,34.,4.8,0.,4.8,0.,4.8,0.,4.8
1979-03-07 06:25:32.820 ,1,0,27.,4.8,0.,4.8,0.,4.8,0.,4.8
1979-03-07 06:25:37.620 ,1,0,31.,4.8,0.,4.8,0.,4.8,0.,4.8
1979-03-07 06:25:42.420 ,1,0,33.,4.8,0.,4.8,0.,4.8,0.,4.8
1979-03-07 06:25:47.220 ,1,0,18.,4.8,0.,4.8,0.,4.8,0.,4.8
1979-03-07 06:25:52.020 ,1,0,26.,4.8,0.,4.8,0.,4.8,0.,4.8
1979-03-07 06:25:56.820 ,2,0,32.,4.8,0.,4.8,0.,4.8,0.,4.8
1979-03-07 06:26:01.620 ,2,0,25.,4.8,0.,4.8,0.,4.8,0.,4.8
1979-03-07 06:26:06.420 ,2,0,25.,4.8,0.,4.8,0.,4.8,0.,4.8
1979-03-07 06:26:11.220 ,2,0,33.,4.8,0.,4.8,0.,4.8,0.,4.8
1979-03-07 06:26:16.020 ,2,0,22.,4.8,0.,4.8,0.,4.8,0.,4.8
1979-03-07 06:26:20.820 ,3,0,32.,4.8,0.,4.8,0.,4.8,0.,4.8
1979-03-07 06:26:25.620 ,3,0,22.,4.8,0.,4.8,0.,4.8,0.,4.8
1979-03-07 06:26:30.420 ,3,0,27.,4.8,0.,4.8,0.,4.8,0.,4.8
1979-03-07 06:26:35.220 ,3,0,38.,4.8,0.,4.8,0.,4.8,0.,4.8
1979-03-07 06:26:40.020 ,3,0,22.,4.8,0.,4.8,0.,4.8,0.,4.8
1979-03-07 06:26:44.820 ,4,0,24.,4.8,0.,4.8,0.,4.8,0.,4.8
1979-03-07 06:26:49.620 ,4,0,30.,4.8,0.,4.8,0.,4.8,0.,4.8
1979-03-07 06:26:54.420 ,4,0,22.,4.8,0.,4.8,0.,4.8,0.,4.8
1979-03-07 06:26:59.220 ,4,0,19.,4.8,0.,4.8,0.,4.8,0.,4.8
1979-03-07 06:27:04.020 ,4,0,22.,4.8,0.,4.8,0.,4.8,0.,4.8
1979-03-07 06:27:08.820 ,5,0,21.,4.8,0.,4.8,0.,4.8,0.,4.8
1979-03-07 06:27:13.620 ,5,0,25.,4.8,0.,4.8,0.,4.8,0.,4.8
1979-03-07 06:27:18.420 ,5,0,25.,4.8,0.,4.8,0.,4.8,0.,4.8
1979-03-07 06:27:23.220 ,5,0,29.,4.8,0.,4.8,0.,4.8,0.,4.8
1979-03-07 06:27:28.020 ,5,0,29.,4.8,0.,4.8,0.,4.8,0.,4.8
1979-03-07 06:27:32.820 ,6,0,31.,4.8,0.,4.8,0.,4.8,0.,4.8
1979-03-07 06:27:37.620 ,6,0,25.,4.8,0.,4.8,0.,4.8,0.,4.8
1979-03-07 06:27:42.420 ,6,0,21.,4.8,0.,4.8,0.,4.8,0.,4.8
1979-03-07 06:27:47.220 ,6,0,21.,4.8,0.,4.8,0.,4.8,0.,4.8
1979-03-07 06:27:52.020 ,6,0,18.,4.8,0.,4.8,0.,4.8,0.,4.8
1979-03-07 06:27:56.820 ,7,0,18.,4.8,0.,4.8,0.,4.8,0.,4.8
1979-03-07 06:28:01.620 ,7,0,27.,4.8,0.,4.8,0.,4.8,0.,4.8
1979-03-07 06:28:06.420 ,7,0,6.,4.8,0.,4.8,0.,4.8,0.,4.8
1979-03-07 06:28:11.220 ,7,0,10.,4.8,0.,4.8,0.,4.8,0.,4.8
1979-03-07 06:28:16.020 ,7,0,8.,4.8,0.,4.8,0.,4.8,0.,4.8
1979-03-07 06:28:20.820 ,7,0,14.,4.8,0.,4.8,0.,4.8,0.,4.8
1979-03-07 06:28:25.620 ,7,0,8.,4.8,0.,4.8,0.,4.8,0.,4.8
1979-03-07 06:28:30.420 ,7,0,11.,4.8,0.,4.8,0.,4.8,0.,4.8
1979-03-07 06:28:35.220 ,7,0,10.,4.8,0.,4.8,0.,4.8,0.,4.8
1979-03-07 06:28:40.020 ,7,0,11.,4.8,0.,4.8,0.,4.8,0.,4.8
1979-03-07 06:28:44.820 ,6,0,9.,4.8,0.,4.8,0.,4.8,0.,4.8
1979-03-07 06:28:49.620 ,6,0,9.,4.8,0.,4.8,0.,4.8,0.,4.8
1979-03-07 06:28:54.420 ,6,0,26.,4.8,0.,4.8,0.,4.8,0.,4.8
1979-03-07 06:28:59.220 ,6,0,21.,4.8,0.,4.8,0.,4.8,0.,4.8
1979-03-07 06:29:04.020 ,6,0,21.,4.8,0.,4.8,0.,4.8,0.,4.8
1979-03-07 06:29:08.820 ,5,0,20.,4.8,0.,4.8,0.,4.8,0.,4.8
1979-03-07 06:29:13.620 ,5,0,16.,4.8,0.,4.8,0.,4.8,0.,4.8
1979-03-07 06:29:18.420 ,5,0,27.,4.8,0.,4.8,0.,4.8,0.,4.8
1979-03-07 06:29:23.220 ,5,0,18.,4.8,0.,4.8,0.,4.8,0.,4.8
1979-03-07 06:29:28.020 ,5,0,16.,4.8,0.,4.8,0.,4.8,0.,4.8
1979-03-07 06:29:32.820 ,4,0,27.,4.8,0.,4.8,0.,4.8,0.,4.8
1979-03-07 06:29:37.620 ,4,0,20.,4.8,0.,4.8,0.,4.8,0.,4.8
1979-03-07 06:29:42.420 ,4,0,22.,4.8,0.,4.8,0.,4.8,0.,4.8
1979-03-07 06:29:47.220 ,4,0,21.,4.8,0.,4.8,0.,4.8,0.,4.8
1979-03-07 06:29:52.020 ,4,0,17.,4.8,0.,4.8,0.,4.8,0.,4.8
1979-03-07 06:29:56.820 ,3,0,26.,4.8,0.,4.8,0.,4.8,0.,4.8
1979-03-07 06:30:01.620 ,3,0,32.,4.8,0.,4.8,0.,4.8,0.,4.8
1979-03-07 06:30:06.420 ,3,0,24.,4.8,0.,4.8,0.,4.8,0.,4.8
1979-03-07 06:30:11.220 ,3,0,31.,4.8,0.,4.8,0.,4.8,0.,4.8
1979-03-07 06:30:16.020 ,3,0,29.,4.8,0.,4.8,0.,4.8,0.,4.8
1979-03-07 06:30:20.820 ,2,0,27.,4.8,0.,4.8,0.,4.8,0.,4.8
1979-03-07 06:30:25.620 ,2,0,19.,4.8,0.,4.8,0.,4.8,0.,4.8
1979-03-07 06:30:30.420 ,2,0,17.,4.8,0.,4.8,0.,4.8,0.,4.8
1979-03-07 06:30:35.220 ,2,0,25.,4.8,0.,4.8,0.,4.8,0.,4.8
1979-03-07 06:30:40.020 ,2,0,29.,4.8,0.,4.8,0.,4.8,0.,4.8
1979-03-07 06:30:44.820 ,1,0,17.,4.8,0.,4.8,0.,4.8,0.,4.8
1979-03-07 06:30:49.620 ,1,0,19.,4.8,0.,4.8,0.,4.8,0.,4.8
1979-03-07 06:30:54.420 ,1,0,20.,4.8,0.,4.8,0.,4.8,0.,4.8
1979-03-07 06:30:59.220 ,1,0,26.,4.8,0.,4.8,0.,4.8,0.,4.8
1979-03-07 06:31:04.020 ,1,0,16.,4.8,0.,4.8,0.,4.8,0.,4.8
1979-03-07 06:31:08.820 ,0,0,16.,4.8,0.,4.8,0.,4.8,0.,4.8
1979-03-07 06:31:13.620 ,0,0,18.,4.8,0.,4.8,0.,4.8,0.,4.8
1979-03-07 06:31:18.420 ,0,0,23.,4.8,0.,4.8,0.,4.8,0.,4.8
1979-03-07 06:31:23.220 ,0,0,26.,4.8,0.,4.8,0.,4.8,0.,4.8
1979-03-07 06:31:28.020 ,0,0,17.,4.8,0.,4.8,0.,4.8,0.,4.8
1979-03-07 06:31:32.820 ,0,0,22.,4.8,0.,4.8,0.,4.8,0.,4.8
1979-03-07 06:31:37.620 ,0,0,19.,4.8,0.,4.8,0.,4.8,0.,4.8
1979-03-07 06:31:42.420 ,0,0,17.,4.8,0.,4.8,0.,4.8,0.,4.8
1979-03-07 06:31:47.220 ,0,0,19.,4.8,0.,4.8,0.,4.8,0.,4.8
1979-03-07 06:31:52.020 ,0,0,21.,4.8,0.,4.8,0.,4.8,0.,4.8
1979-03-07 06:31:56.820 ,1,0,23.,4.8,0.,4.8,0.,4.8,0.,4.8
1979-03-07 06:32:01.620 ,1,0,16.,4.8,0.,4.8,0.,4.8,0.,4.8
1979-03-07 06:32:06.420 ,1,0,16.,4.8,0.,4.8,0.,4.8,0.,4.8
1979-03-07 06:32:11.220 ,1,0,20.,4.8,0.,4.8,0.,4.8,0.,4.8
1979-03-07 06:32:16.020 ,1,0,24.,4.8,0.,4.8,0.,4.8,0.,4.8
1979-03-07 06:32:20.820 ,2,0,27.,4.8,0.,4.8,0.,4.8,0.,4.8
1979-03-07 06:32:25.620 ,2,0,20.,4.8,0.,4.8,0.,4.8,0.,4.8
1979-03-07 06:32:30.420 ,2,0,16.,4.8,0.,4.8,0.,4.8,0.,4.8
1979-03-07 06:32:35.220 ,2,0,18.,4.8,0.,4.8,0.,4.8,0.,4.8
1979-03-07 06:32:40.020 ,2,0,20.,4.8,0.,4.8,0.,4.8,0.,4.8
1979-03-07 06:32:44.820 ,3,0,21.,4.8,0.,4.8,0.,4.8,0.,4.8